"Pseudo-MPEC" for C43XEJ1
Created 2024 Dec 1 12:31:10 UT using Find_Orb
Click here for an explanation of pseudo-MPECs
Astrometry:
C43XEJ1*1C2024 11 29.47934911 01 06.676+44 51 14.51 ~BTC2 18.45GVNEOCP703
C43XEJ1 1C2024 11 29.48166311 01 02.046+44 51 33.55 ~BTC2 18.97GVNEOCP703
C43XEJ1 1C2024 11 29.48397811 00 57.452+44 51 53.78 ~BTC2 18.83GVNEOCP703
C43XEJ1 1C2024 11 29.48629411 00 52.859+44 52 13.58 ~BTC2 18.50GVNEOCP703
C43XEJ1 mC2024 11 29.53110010 59 23.478+44 58 24.46 ~BTD2 18.89GVNEOCPI52
C43XEJ1 mC2024 11 29.53126910 59 23.172+44 58 25.97 ~BTD2 18.99GVNEOCPI52
C43XEJ1 mC2024 11 29.53143910 59 22.830+44 58 27.26 ~BTD2 18.45GVNEOCPI52
C43XEJ1 mC2024 11 29.53161410 59 22.459+44 58 28.74 ~BTD2 18.41GVNEOCPI52
C43XEJ1 KB2024 11 29.93501 10 46 18.85 +45 47 59.5 ~BU22 19.5 GXNEOCPK83
C43XEJ1 KC2024 11 29.93510 10 46 59.79 +45 44 00.6 ~BTN2!19.3 GXNEOCPK83
C43XEJ1 KB2024 11 29.94245 10 46 04.36 +45 48 54.0 ~BU22 18.9 GXNEOCPK83
C43XEJ1 KC2024 11 29.94272 10 46 45.60 +45 44 59.4 ~BTN2!19.1 GXNEOCPK83
C43XEJ1 KB2024 11 29.94985 10 45 50.07 +45 49 49.2 ~BU22 18.4 GXNEOCPK83
C43XEJ1 KC2024 11 29.97144110 45 07.83 +45 52 24.9 ~BU02 VNEOCP104
C43XEJ1 KC2024 11 29.97530210 45 00.38 +45 52 53.8 ~BU02 18.1 GVNEOCP104
C43XEJ1 KC2024 11 29.97935810 44 52.37 +45 53 23.7 ~BU02 18.3 GVNEOCP104
C43XEJ1 KC2024 11 29.98399410 44 43.30 +45 53 56.7 ~BU02 18.3 GVNEOCP104
C43XEJ1 KB2024 11 30.03335 10 43 06.56 +45 59 47.3 ~BU3l 17.2 GXNEOCPK19
C43XEJ1 KB2024 11 30.03606 10 43 01.21 +46 00 06.1 ~BU3l 18.4 GXNEOCPK19
C43XEJ1 KB2024 11 30.03873 10 42 55.88 +46 00 25.2 ~BU3l 18.4 GXNEOCPK19
C43XEJ1 KB2024 11 30.04299710 42 46.97 +46 00 58.9 ~BU22 18.4 GXNEOCP595
C43XEJ1 KC2024 11 30.04445510 42 43.59 +46 01 03.7 ~BU1l 18.5 GVNEOCPK62
C43XEJ1 KC2024 11 30.04596410 42 40.60 +46 01 14.1 ~BU1l 18.6 GVNEOCPK62
C43XEJ1 KC2024 11 30.04747310 42 37.63 +46 01 24.8 ~BU1l 18.5 GVNEOCPK62
C43XEJ1 KB2024 11 30.04830210 42 36.52 +46 01 36.2 ~BU22 18.6 GXNEOCP595
C43XEJ1 KC2024 11 30.04898310 42 34.65 +46 01 35.3 ~BU1l 18.5 GVNEOCPK62
C43XEJ1 KB2024 11 30.05230110 42 28.86 +46 02 00.8 ~BU92 VNEOCP204
C43XEJ1 KB2024 11 30.05360510 42 26.03 +46 02 13.3 ~BU22 18.4 GXNEOCP595
C43XEJ1 KB2024 11 30.05511010 42 23.31 +46 02 20.5 ~BU92 VNEOCP204
C43XEJ1 KB2024 11 30.05792610 42 17.75 +46 02 40.3 ~BU92 18.4 GVNEOCP204
C43XEJ1 C2024 11 30.07845 10 41 37.54 +46 05 03.7 ~BU2V 18.4 RXNEOCP511
C43XEJ1 KB2024 11 30.07857910 41 37.69 +46 05 00.0 ~BU2l 18.3 GXNEOCP958
C43XEJ1 C2024 11 30.07921 10 41 36.04 +46 05 08.9 ~BU2V 18.5 RXNEOCP511
C43XEJ1 C2024 11 30.08001 10 41 34.45 +46 05 14.5 ~BU2V 18.5 RXNEOCP511
C43XEJ1 C2024 11 30.08077 10 41 32.95 +46 05 19.8 ~BU2V 18.4 RXNEOCP511
C43XEJ1 C2024 11 30.08115 10 41 32.22 +46 05 22.3 ~BU2V 18.6 RXNEOCP511
C43XEJ1 KC2024 11 30.08367710 41 26.47 +46 05 43.3 ~BU2l 18.4 GVNEOCPL01
C43XEJ1 KB2024 11 30.08386410 41 27.23 +46 05 36.5 ~BU2l 18.2 GXNEOCP958
C43XEJ1 KC2024 11 30.08467010 41 24.51 +46 05 50.2 ~BU2l 18.6 GVNEOCPL01
C43XEJ1 KC2024 11 30.08566110 41 22.55 +46 05 57.2 ~BU2l 18.5 GVNEOCPL01
C43XEJ1 KC2024 11 30.08664910 41 20.60 +46 06 04.0 ~BU2l 18.6 GVNEOCPL01
C43XEJ1 KC2024 11 30.08763910 41 18.62 +46 06 10.8 ~BU2l 18.5 GVNEOCPL01
C43XEJ1 KC2024 11 30.08863010 41 16.67 +46 06 17.4 ~BU2l 18.6 GVNEOCPL01
C43XEJ1 KB2024 11 30.08911110 41 16.90 +46 06 13.2 ~BU2l 18.1 GXNEOCP958
C43XEJ1 1C2024 11 30.15822010 38 58.146+46 13 56.10 ~BUA2 19.0 GXNEOCP033
C43XEJ1 1C2024 11 30.15853010 38 57.556+46 13 58.20 ~BUA2 19.1 GXNEOCP033
C43XEJ1 1C2024 11 30.15883010 38 56.926+46 14 00.00 ~BUA2 18.9 GXNEOCP033
C43XEJ1 KB2024 11 30.20618110 37 22.836+46 19 08.69 ~BU6V 18.4 VZNEOCPK74
C43XEJ1 KB2024 11 30.21020810 37 14.822+46 19 34.07 ~BU6V 18.6 VZNEOCPK74
C43XEJ1 KB2024 11 30.21422710 37 06.787+46 19 59.77 ~BU6V 18.6 VZNEOCPK74
C43XEJ1 KC2024 11 30.69466110 21 38.22 +47 05 45.5 ~BUI2 18.4 GVNEOCP900
C43XEJ1 KC2024 11 30.70519210 21 17.54 +47 06 42.7 ~BUI2 18.5 GVNEOCP900
C43XEJ1 KC2024 11 30.71498610 20 58.30 +47 07 35.1 ~BUI2 18.5 GVNEOCP900
C43XEJ1 KC2024 11 30.89155 10 15 17.88 +47 21 01.3 ~BUMH 18.8 GqNEOCPL04
C43XEJ1 KB2024 11 30.89750310 15 05.827+47 21 20.99 ~BUMl 16.9 GVNEOCPG34
C43XEJ1 KB2024 11 30.90150610 14 58.183+47 21 40.18 ~BUMl 17.0 GVNEOCPG34
C43XEJ1 KC2024 11 30.90611 10 14 49.99 +47 22 12.6 ~BUMH 18.6 GqNEOCPL04
C43XEJ1 KB2024 11 30.90952310 14 42.852+47 22 20.14 ~BUMl 18.5 GVNEOCPG34
C43XEJ1 KC2024 11 30.91360 10 14 35.61 +47 22 49.6 ~C17H 17.2 GqNEOCPL04
C43XEJ1 KB2024 11 30.91753710 14 27.485+47 22 58.66 ~BUMl 18.1 GVNEOCPG34
C43XEJ1 KC2024 11 30.91863 10 14 25.93 +47 23 14.1 ~C17H 17.1 GqNEOCPL04
C43XEJ1 KC2024 11 30.93386 10 13 56.10 +47 24 17.6 ~BUNH 18.5 GVNEOCPC43
C43XEJ1 KB2024 11 30.93585110 13 52.391+47 24 23.07 ~BUN2 18.1 GXNEOCPB72
C43XEJ1 KC2024 11 30.93626 10 13 51.52 +47 24 29.2 ~BUNH 18.4 GVNEOCPC43
C43XEJ1 KC2024 11 30.93864 10 13 46.96 +47 24 40.6 ~BUNH 18.7 GVNEOCPC43
C43XEJ1 KB2024 11 30.93951610 13 45.298+47 24 40.28 ~BUN2 17.9 GXNEOCPB72
C43XEJ1 KC2024 11 30.94102 10 13 42.43 +47 24 52.6 ~BUNH 18.5 GVNEOCPC43
C43XEJ1 KB2024 11 30.94318110 13 38.273+47 24 58.06 ~BUN2 18.5 GXNEOCPB72
C43XEJ1 KC2024 11 30.94340 10 13 37.86 +47 25 04.5 ~BUNH 18.0 GVNEOCPC43
C43XEJ1 KB2024 12 01.00642910 11 36.826+47 29 59.46 ~C152 18.6 VZNEOCPK74
C43XEJ1 KB2024 12 01.00956710 11 30.756+47 30 14.22 ~C152 18.6 VZNEOCPK74
C43XEJ1 KB2024 12 01.01270710 11 24.703+47 30 28.51 ~C152 18.5 VZNEOCPK74
C43XEJ1 KB2024 12 01.01576410 11 18.830+47 30 42.55 ~C152 18.6 VZNEOCPK74
C43XEJ1 1C2024 12 01.13796010 07 21.976+47 39 39.20 ~C192 19.3 GXNEOCP033
C43XEJ1 1C2024 12 01.13833010 07 21.266+47 39 40.40 ~C192 19.2 GXNEOCP033
C43XEJ1 1C2024 12 01.13872010 07 20.518+47 39 42.10 ~C192 19.1 GXNEOCP033
C43XEJ1 KB2024 12 01.17037 10 06 19.238+47 41 53.45 ~C17l 18.7 GXNEOCPK87
C43XEJ1 KB2024 12 01.17433 10 06 11.621+47 42 10.01 ~C17l 18.3 GXNEOCPK87
C43XEJ1 KB2024 12 01.17828 10 06 03.890+47 42 25.38 ~C17l 18.1 GXNEOCPK87
C43XEJ1 KB2024 12 01.20197610 05 18.17 +47 43 53.6 ~C1AV 18.4 GVNEOCPL65
C43XEJ1 KB2024 12 01.21200710 04 58.78 +47 44 32.7 ~C1AV 18.0 GVNEOCPL65
C43XEJ1 KB2024 12 01.22203310 04 39.39 +47 45 11.2 ~C1AV 18.3 GVNEOCPL65
C43XEJ1 C2024 12 01.34140 10 01 00.73 +47 52 22.6 ~C18l 18.2 rNEOCP718
C43XEJ1 C2024 12 01.34196 10 00 59.81 +47 52 25.5 ~C18l 17.7 rNEOCP718
C43XEJ1 C2024 12 01.34252 10 00 58.64 +47 52 28.3 ~C18l 18.4 rNEOCP718
Station data:
(033) Karl Schwarzschild Observatory, Tautenburg (N50.980139 E11.711240)
Germany. Observer B. Stecklum. 1.34-m f/3 Schmidt + CCD.
(104) San Marcello Pistoiese (N44.064178 E10.803750) Italy. Observers P.
Bacci, M. Maestripieri. Measurers P. Bacci, L. Tesi, G. Fagioli. 0.60-m
reflector + CCD.
(204) Schiaparelli Observatory (N45.868292 E8.769720) Italy. Observer L.
Buzzi. 0.60-m f/4.64 Newtonian + CCD0.84-m f/3.5 reflector + CCD.
(511) Haute Provence (N43.931873 E5.715700) France. Observers W.
Polycarpe, M. Dennefield, W. Thuillot, B. Carry, P. David, S. Bouquillon,
F. Taris, P. Tanga, M. Delbó, E. Saquet, V. Robert. Measurers W. Thuillot,
S. Bouquillon, F. Taris, T. Carlucci, C. Barache. 1.20-m f/6 reflector +
CCD.
(595) Farra d'Isonzo (N45.915731 E13.525780) Italy. Observers S. Aschi, E.
Pettarin, G. Panterotto. Measurers S. Aschi, E. Pettarin. 0.40-m f/5.15
reflector + CCD.
(703) Catalina Sky Survey (N32.417029 W110.732640) US/Arizona. Observer E.
J. Christensen. 0.68 m Schmidt + 10K CCD.
(718) Tooele (N40.641406 W112.295800) US/Utah. Observer P. Wiggins. 0.35-m
f/5.5 Schmidt-Cassegrain + CCD.
(900) Moriyama (N35.049753 E135.989940) Japan. Observer Y. Ikari. 0.26-m
f/7.0 reflector + CCD.
(958) Observatoire de Dax (N43.693381 W1.030530) France. Observer P.
Dupouy. 0.32-m Schmidt-Cassegrain.
(B72) Soerth (N50.698827 E7.681050) Germany. Observer B. Koch.
0.36-m f/7.6 Schmidt-Cassegrain + CCD + f/7.6 focal reducer.
(C43) Hoyerswerda (N51.448368 E14.279200) Germany. Observer P. Lindner.
0.30-m f/6.3 Schmidt-Cassegrain + CCD.
(G34) Oberfrauendorf (N50.860002 E13.701500) Germany. Observer T. Felber.
0.35-m f/6.3 Schmidt-Cassegrain + CCD.
(I52) Steward Observatory, Mt. Lemmon Station (N32.442570 W110.788920)
US/Arizona. Observers T. A. Pruyne, B. M. Africano, E. J. Christensen, G.
A. Farneth, D. C. Fuls, A. R. Gibbs, A. D. Grauer, H. Gröller, J. A.
Johnson, R. A. Kowalski, S. M. Larson, G. J. Leonard, D. Rankin, R. L.
Seaman, F. C. Shelly, K. W. Wierzchoś. 1.0-m prime focus + CCD.
(K19) PASTIS Observatory, Banon (N43.999459 E5.647310) France. Observer C.
Demeautis. 0.16-m f/3.3 reflector + CCD.
(K62) Teplice Observatory (N50.638318 E13.846750) Czech Republic. Observer
Z. Moravec. 0.43-m f/4.5 reflector + CCD.
(K74) Muensterschwarzach Observatory, Schwarzach (N49.805276 E10.236400)
Germany. Observer C. Gerhard. 0.30-m f/3.75 Newtonian reflector + CCD.
(K83) Beppe Forti Astronomical Observatory, Montelupo (N43.755330
E11.043170) Italy. Observers M. Tombelli, A. Mazzanti, E. Venticinque.
Measurers G. Interrante, M. Iozzi, M. Tombelli, F. Bernardi. 0.40-m f/8
Ritchey-Chrétien + CCD.
(K87) Dettelbach Vineyard Observatory (N49.807690 E10.170110) Germany.
Observer B. Haeusler. 0.3-m f/8.0 Schmidt-Cassegrain + CCD.
(L01) Višnjan Observatory, Tičan (N45.290897 E13.749300) Croatia.
Observers K. Korlević, D. Pujagic, V. Dobos. Measurers D. Pujagic, K.
Korlević. 1.0-m f/2.9 reflector + CCD.
(L04) ROASTERR-1 Observatory, Cluj-Napoca (N46.820952 E23.596400) Romania.
Observer L. Hudin. 0.3-m f/5 reflector + CCD0.1-m f/9 refractor + CCD.
(L65) Bredenkamp Observatory, Bremen (N53.075279 E8.828310) Germany.
Observer H. Duin. 0.23-m f/6.3 reflector + CMO.
Orbital elements: C43XEJ1
Perihelion 2024 Oct 13.38386 +/- 0.0346 TT = 9:12:45 (JD 2460596.88386)
Epoch 2024 Dec 1.0 TT = JDT 2460645.5 Earth MOID: 0.0501 Ve: 0.0038
M 17.26872646 +/- 0.09 Ma: 0.0308 AutoNEOCP
n 0.35520563 +/- 0.00174 Peri. 356.93071 +/- 0.06
a 1.97461677 +/- 0.00646 Node 351.00560 +/- 0.08
e 0.6734413 +/- 0.00134 Incl. 2.96497 +/- 0.0051
P 2.77475 H 21.38 G 0.15 U 8.5
q 0.64482814 +/- 0.00054 Q 3.30440539 +/- 0.0135 (J2000 ecliptic)
